1506564000.28,11745,16.0,74694.0,-0.83,-31.11,-31.61,0,*6A
1506564001.56,11746,16.0,74694.3,-0.83,-30.95,-31.51,0,*67
1506564002.82,11747,16.0,74688.8,-0.83,-30.77,-31.33,0,*6E
1506564004.08,11748,16.0,74692.3,-0.83,-30.95,-31.45,0,*6C
1506564005.34,11749,15.94,74688.3,-0.83,-30.73,-31.29,0,*6F
1506564006.58,11750,15.94,74690.0,-0.83,-30.83,-31.45,0,*62
1506564007.86,11751,15.94,74686.3,-0.83,-30.95,-31.51,0,*61
1506564009.12,11752,16.0,74688.8,-0.83,-30.95,-31.45,0,*67
1506564010.38,11753,16.0,74688.0,-0.83,-30.77,-31.17,0,*6D
1506564011.61,11754,16.0,74696.3,-0.81,-30.77,-31.33,0,*6E
1506564012.86,11755,16.0,74690.5,-0.81,-30.95,-31.51,0,*67
1506564014.09,11756,15.94,74690.8,-0.81,-30.83,-31.51,0,*63
1506564015.35,11757,15.94,74692.5,-0.83,-30.77,-31.29,0,*64
1506564016.61,11758,16.0,74692.5,-0.83,-30.77,-31.33,0,*60
1506564017.87,11759,16.0,74688.8,-0.83,-30.77,-31.29,0,*6A
1506564019.12,11760,16.0,74690.8,-0.83,-30.73,-31.33,0,*6F
1506564020.37,11761,15.94,74688.3,-0.83,-31.01,-31.51,0,*6E
1506564021.63,11762,15.94,74684.5,-0.83,-30.95,-31.45,0,*64
1506564022.86,11763,15.94,74686.5,-0.85,-30.83,-31.45,0,*64
1506564024.12,11764,15.94,74690.0,-0.83,-30.61,-31.29,0,*63
1506564025.37,11765,15.94,74694.0,-0.83,-30.77,-31.33,0,*6E
1506564026.63,11766,15.94,74686.5,-0.83,-30.77,-31.33,0,*6D
1506564027.86,11767,15.94,74690.8,-0.83,-30.83,-31.33,0,*67
1506564029.09,11768,15.94,74690.8,-0.83,-30.83,-31.33,0,*68
1506564030.35,11769,16.0,74690.5,-0.83,-30.73,-31.29,0,*6D
1506564031.61,11770,16.0,74692.5,-0.83,-30.77,-31.45,0,*6B
1506564032.87,11771,16.0,74694.0,-0.83,-30.77,-31.17,0,*6D
1506564034.12,11772,15.94,74690.3,-0.83,-30.61,-31.17,0,*69
1506564035.4,11773,16.0,74690.8,-0.83,-30.61,-31.11,0,*6E
1506564036.61,11774,16.0,74690.5,-0.81,-30.83,-31.45,0,*66
1506564037.9,11775,16.0,74694.8,-0.83,-30.95,-31.51,0,*67
1506564039.15,11776,16.0,74692.0,-0.83,-30.61,-31.17,0,*6D
1506564040.4,11777,16.0,74694.3,-0.85,-30.77,-31.33,0,*6B
1506564041.65,11778,15.94,74688.5,-0.83,-30.61,-31.29,0,*6E
1506564042.91,11779,15.94,74690.8,-0.83,-30.73,-31.29,0,*6C
1506564044.18,11780,15.94,74688.3,-0.85,-30.89,-31.39,0,*68
1506564045.41,11781,15.94,74692.8,-0.83,-30.83,-31.33,0,*6F
1506564046.7,11782,16.0,74688.8,-0.83,-30.95,-31.51,0,*6F
1506564047.94,11783,15.94,74688.0,-0.85,-30.51,-31.05,0,*61
1506564049.2,11784,16.0,74694.8,-0.83,-30.73,-31.29,0,*6E
1506564050.45,11785,15.94,74690.5,-0.83,-30.77,-31.33,0,*60
1506564051.7,11786,16.0,74692.5,-0.83,-31.01,-31.61,0,*64
1506564052.95,11787,16.0,74694.5,-0.85,-30.83,-31.39,0,*65
1506564054.21,11788,16.0,74690.0,-0.83,-30.73,-31.33,0,*69
1506564055.42,11789,15.94,74686.5,-0.85,-31.05,-31.67,0,*6F
1506564056.67,11790,15.94,74690.5,-0.85,-30.83,-31.39,0,*63
1506564057.91,11791,16.0,74690.8,-0.83,-30.83,-31.45,0,*6F
1506564059.18,11792,16.0,74694.5,-0.85,-30.89,-31.51,0,*65
1506564060.41,11793,16.0,74692.3,-0.83,-31.01,-31.45,0,*66
1506564061.69,11794,16.0,74694.8,-0.85,-30.89,-31.39,0,*6D
1506564062.91,11795,15.94,74690.0,-0.85,-30.83,-31.33,0,*6C
1506564064.19,11796,16.0,74694.3,-0.83,-30.61,-31.11,0,*65
1506564065.44,11797,16.0,74694.5,-0.83,-30.77,-31.33,0,*63
1506564066.67,11798,15.94,74690.0,-0.85,-30.67,-31.17,0,*6D
1506564067.93,11799,15.94,74692.5,-0.79,-30.67,-31.11,0,*69
1506564069.2,11800,15.94,74692.5,-0.85,-30.89,-31.51,0,*61
1506564070.46,11801,15.94,74692.5,-0.83,-30.77,-31.29,0,*68
1506564071.73,11802,16.0,74694.3,-0.85,-30.77,-31.23,0,*67
1506564072.99,11803,16.0,74694.5,-0.83,-30.77,-31.29,0,*6A
1506564074.25,11804,16.0,74692.0,-0.83,-30.77,-31.33,0,*66
1506564075.51,11805,16.0,74692.8,-0.83,-30.95,-31.45,0,*6A
1506564076.76,11806,15.94,74688.8,-0.85,-30.83,-31.39,0,*63
1506564078.02,11807,15.94,74688.8,-0.83,-30.77,-31.29,0,*6E
1506564079.27,11808,16.0,74692.3,-0.85,-30.83,-31.39,0,*6D
1506564080.51,11809,15.94,74688.0,-0.85,-31.01,-31.39,0,*67
1506564081.76,11810,15.94,74690.8,-0.85,-30.77,-31.33,0,*65
1506564083.03,11811,16.0,74692.3,-0.85,-30.77,-31.39,0,*6E
1506564084.3,11812,15.94,74688.5,-0.85,-30.89,-31.51,0,*62
1506564085.54,11813,16.0,74694.0,-0.85,-31.05,-31.57,0,*60
1506564086.81,11814,15.94,74694.5,-0.85,-30.89,-31.39,0,*6A
1506564088.03,11815,15.94,74692.0,-0.85,-30.67,-31.33,0,*61
1506564089.28,11816,15.94,74692.8,-0.85,-30.77,-31.17,0,*65
1506564090.53,11817,15.94,74692.0,-0.85,-30.77,-31.33,0,*62
1506564091.75,11818,15.94,74690.8,-0.85,-30.83,-31.33,0,*66
1506564092.97,11819,15.94,74688.0,-0.85,-30.83,-31.33,0,*67
1506564094.22,11820,15.94,74688.5,-0.85,-31.01,-31.39,0,*6C
1506564095.49,11821,15.94,74690.8,-0.85,-30.89,-31.39,0,*6C
1506564096.71,11822,15.94,74690.0,-0.85,-30.83,-31.33,0,*6F
1506564097.99,11823,15.94,74696.5,-0.85,-30.89,-31.39,0,*6E
1506564099.26,11824,16.0,74692.3,-0.85,-30.89,-31.39,0,*69
1506564100.51,11825,15.94,74688.5,-0.85,-30.83,-31.23,0,*69
1506564101.76,11826,15.94,74692.0,-0.85,-30.61,-31.05,0,*62
1506564102.98,11827,16.0,74692.0,-0.89,-30.83,-31.29,0,*6D
1506564104.26,11828,15.94,74690.0,-0.89,-30.73,-31.11,0,*66
1506564105.51,11829,16.0,74696.3,-0.85,-30.67,-31.23,0,*6F
1506564106.76,11830,16.0,74694.8,-0.85,-30.83,-31.39,0,*66
1506564108.0,11831,15.94,74692.8,-0.85,-31.05,-31.57,0,*60
1506564109.25,11832,15.94,74690.5,-0.83,-30.77,-31.33,0,*63
1506564110.48,11833,16.0,74698.0,-0.85,-30.83,-31.33,0,*6F
1506564111.73,11834,16.0,74700.3,-0.89,-30.89,-31.29,0,*65
1506564112.96,11835,15.94,74694.5,-0.89,-30.83,-31.45,0,*64
1506564114.23,11836,15.94,74690.0,-0.89,-30.89,-31.39,0,*66
1506564115.48,11837,15.94,74694.5,-0.89,-30.89,-31.29,0,*66
1506564116.71,11838,15.94,74690.3,-0.91,-30.83,-31.39,0,*6B
1506564117.98,11839,15.94,74688.0,-0.89,-30.89,-31.39,0,*69
1506564119.26,11840,15.94,74696.0,-0.89,-30.73,-31.23,0,*69
1506564120.51,11841,15.94,74696.3,-0.89,-30.89,-31.29,0,*67
1506564121.79,11842,15.94,74688.0,-0.89,-30.89,-31.23,0,*6E
1506564123.04,11843,15.94,74694.0,-0.89,-30.83,-31.23,0,*65
1506564124.29,11844,15.94,74694.5,-0.89,-30.89,-31.29,0,*62
1506564125.54,11845,15.94,74696.3,-0.89,-30.83,-31.23,0,*63
1506564126.8,11846,15.94,74694.5,-0.89,-30.83,-31.23,0,*60
1506564128.03,11847,15.94,74696.0,-0.89,-30.83,-31.29,0,*6B
1506564129.28,11848,16.0,74698.0,-0.89,-30.95,-31.45,0,*69
1506564130.49,11849,16.0,74696.3,-0.91,-30.83,-31.29,0,*6C
1506564131.74,11850,16.0,74694.8,-0.89,-30.95,-31.45,0,*60
1506564133.02,11851,15.94,74692.0,-0.89,-30.73,-31.23,0,*69
1506564134.29,11852,15.94,74698.5,-0.89,-30.73,-31.23,0,*6A
1506564135.54,11853,15.94,74696.8,-0.85,-30.89,-31.33,0,*63
1506564136.77,11854,15.94,74696.8,-0.91,-30.95,-31.45,0,*6D
1506564138.02,11855,15.94,74692.5,-0.89,-30.89,-31.29,0,*62
1506564139.29,11856,15.94,74694.8,-0.89,-30.51,-30.95,0,*62
1506564140.51,11857,15.94,74692.3,-0.85,-30.67,-31.05,0,*62
1506564141.76,11858,15.94,74696.5,-0.85,-30.61,-31.05,0,*6B
1506564142.98,11859,15.94,74696.3,-0.89,-30.83,-31.05,0,*6A
1506564144.23,11860,15.94,74692.0,-0.85,-30.83,-31.39,0,*63
1506564145.47,11861,15.94,74692.5,-0.91,-30.83,-31.23,0,*6C
1506564146.73,11862,15.94,74694.5,-0.89,-30.39,-30.95,0,*6B
1506564147.98,11863,15.94,74690.5,-0.85,-30.77,-31.17,0,*67
1506564149.23,11864,15.94,74690.8,-0.89,-30.83,-31.23,0,*60
1506564150.48,11865,15.94,74694.5,-0.89,-30.89,-31.29,0,*61
1506564151.73,11866,15.94,74692.0,-0.89,-30.67,-31.11,0,*69
1506564152.99,11867,15.94,74694.5,-0.85,-30.67,-31.23,0,*65
1506564154.22,11868,15.94,74694.5,-0.89,-30.83,-31.29,0,*66
1506564155.44,11869,15.94,74692.3,-0.89,-30.83,-31.29,0,*67
1506564156.71,11870,15.94,74696.0,-0.89,-30.89,-31.39,0,*64
1506564157.95,11871,15.94,74694.5,-0.89,-30.83,-31.45,0,*64
1506564159.22,11872,15.94,74694.0,-0.89,-30.89,-31.39,0,*66
1506564160.5,11873,15.94,74688.0,-0.89,-30.89,-31.23,0,*6C
1506564161.77,11874,15.94,74696.5,-0.89,-30.89,-31.23,0,*6B
1506564163.05,11875,15.94,74696.5,-0.89,-30.73,-31.23,0,*6F
1506564164.27,11876,15.94,74698.3,-0.85,-30.67,-31.05,0,*61
1506564165.55,11877,15.94,74694.8,-0.85,-30.77,-31.23,0,*65
1506564166.82,11878,15.94,74694.8,-0.89,-30.89,-31.39,0,*6C
1506564168.07,11879,15.94,74696.0,-0.89,-30.83,-31.39,0,*67
1506564169.33,11880,15.94,74692.8,-0.89,-30.95,-31.45,0,*6D
1506564170.58,11881,15.94,74690.3,-0.89,-30.67,-30.95,0,*6D
1506564171.81,11882,15.94,74694.8,-0.83,-30.83,-31.33,0,*63
1506564173.06,11883,15.94,74692.8,-0.91,-30.89,-31.39,0,*61
1506564174.31,11884,16.0,74696.3,-0.89,-30.95,-31.45,0,*69
1506564175.57,11885,15.94,74694.3,-0.89,-30.95,-31.45,0,*68
1506564176.8,11886,15.94,74696.0,-0.91,-30.89,-31.45,0,*6F
1506564178.03,11887,15.94,74698.5,-0.91,-30.73,-31.05,0,*6F
1506564179.29,11888,15.94,74692.3,-0.89,-30.51,-30.95,0,*61
1506564180.56,11889,15.94,74696.0,-0.89,-30.55,-31.11,0,*69
1506564181.83,11890,15.94,74694.8,-0.89,-30.39,-30.73,0,*6E
1506564183.06,11891,15.94,74696.8,-0.89,-30.67,-31.05,0,*64
1506564184.33,11892,16.0,74698.5,-0.89,-30.73,-31.11,0,*67
1506564185.56,11893,15.94,74692.5,-0.89,-30.83,-31.29,0,*62
1506564186.81,11894,15.94,74694.5,-0.85,-30.67,-31.23,0,*69
1506564188.08,11895,15.94,74694.8,-0.89,-30.73,-31.39,0,*6A
1506564189.33,11896,15.94,74694.0,-0.89,-30.73,-31.29,0,*68
1506564190.56,11897,15.94,74698.8,-0.85,-30.67,-31.05,0,*6E
1506564191.8,11898,15.94,74696.5,-0.85,-30.51,-31.05,0,*64
1506564193.05,11899,15.94,74698.3,-0.85,-30.83,-31.23,0,*6E
1506564194.3,11900,15.94,74692.3,-0.89,-30.89,-31.29,0,*63
1506564195.53,11901,15.94,74692.5,-0.85,-30.67,-31.17,0,*63
1506564196.81,11902,15.94,74694.5,-0.85,-30.77,-31.23,0,*66
1506564198.08,11903,15.94,74698.8,-0.89,-30.95,-31.57,0,*64
1506564199.31,11904,16.0,74698.3,-0.91,-30.83,-31.23,0,*6E
1506564200.56,11905,15.94,74690.8,-0.89,-30.95,-31.45,0,*61
1506564201.84,11906,15.94,74688.8,-0.89,-30.89,-31.23,0,*6F
1506564203.09,11907,15.94,74692.5,-0.89,-30.89,-31.45,0,*6E
1506564204.37,11908,15.94,74692.5,-0.89,-30.73,-31.23,0,*64
1506564205.65,11909,15.94,74692.5,-0.85,-30.51,-30.89,0,*68
1506564206.9,11910,15.94,74692.8,-0.89,-30.51,-30.83,0,*66
1506564208.15,11911,15.94,74688.8,-0.83,-30.45,-30.73,0,*67
1506564209.38,11912,15.94,74694.3,-0.89,-30.83,-31.29,0,*6A
1506564210.63,11913,15.94,74698.3,-0.89,-30.89,-31.45,0,*6B
1506564211.89,11914,15.94,74694.5,-0.89,-30.83,-31.23,0,*66
1506564213.13,11915,15.94,74692.5,-0.89,-30.55,-31.05,0,*68
1506564214.38,11916,15.94,74694.5,-0.89,-30.67,-31.11,0,*6F
1506564215.63,11917,15.94,74696.0,-0.89,-30.83,-31.23,0,*65
1506564216.88,11918,15.94,74692.3,-0.89,-30.73,-31.29,0,*6F
1506564218.12,11919,15.94,74692.0,-0.89,-30.55,-31.05,0,*64
1506564219.35,11920,15.94,74694.0,-0.89,-30.67,-31.05,0,*6F
1506564220.62,11921,15.94,74696.8,-0.89,-30.73,-31.11,0,*6E
1506564221.88,11922,15.94,74694.0,-0.89,-30.67,-31.23,0,*69
1506564223.15,11923,15.94,74696.8,-0.85,-30.77,-31.23,0,*65
1506564224.39,11924,15.94,74694.8,-0.91,-30.83,-31.23,0,*6C
1506564225.64,11925,15.94,74692.0,-0.85,-30.83,-31.23,0,*68
1506564226.87,11926,15.94,74698.5,-0.91,-30.73,-31.29,0,*6B
1506564228.15,11927,15.94,74700.5,-0.89,-30.73,-31.23,0,*69
1506564229.4,11928,15.94,74694.8,-0.91,-30.73,-31.23,0,*6F
1506564230.66,11929,15.94,74696.8,-0.89,-30.95,-31.45,0,*6F
1506564231.91,11930,15.94,74698.5,-0.89,-30.89,-31.29,0,*60
1506564233.14,11931,16.0,74696.8,-0.91,-30.89,-31.45,0,*62
1506564234.37,11932,15.94,74698.8,-0.91,-30.83,-31.23,0,*6B
1506564235.6,11933,15.94,74694.3,-0.89,-30.83,-31.29,0,*69
1506564236.83,11934,15.94,74696.3,-0.91,-30.89,-31.45,0,*67
1506564238.09,11935,15.94,74694.3,-0.89,-30.83,-31.23,0,*65
1506564239.34,11936,15.94,74696.3,-0.89,-30.83,-31.39,0,*6D
1506564240.56,11937,15.94,74698.5,-0.91,-30.51,-31.05,0,*65
1506564241.81,11938,15.94,74696.5,-0.89,-30.67,-31.11,0,*63
1506564243.06,11939,15.94,74698.0,-0.89,-30.89,-31.29,0,*69
1506564244.28,11940,15.94,74698.5,-0.89,-30.67,-31.05,0,*69
1506564245.55,11941,15.94,74696.5,-0.89,-30.51,-30.95,0,*65
1506564246.8,11942,15.94,74698.3,-0.89,-30.67,-31.11,0,*6E
1506564248.06,11943,15.94,74698.3,-0.91,-30.73,-31.11,0,*63
1506564249.31,11944,15.94,74698.5,-0.91,-30.73,-31.23,0,*65
1506564250.59,11945,15.94,74696.0,-0.89,-30.73,-31.11,0,*6C
1506564251.81,11946,15.94,74696.8,-0.91,-30.73,-31.29,0,*6D
1506564253.02,11947,15.94,74694.0,-0.91,-30.83,-31.29,0,*63
1506564254.28,11948,15.94,74696.0,-0.89,-30.83,-31.23,0,*6F
1506564255.53,11949,15.94,74696.3,-0.89,-30.83,-31.23,0,*6E
1506564256.78,11950,15.94,74696.0,-0.89,-30.67,-31.23,0,*6C
1506564258.04,11951,15.94,74696.8,-0.89,-30.83,-31.23,0,*67
1506564259.25,11952,15.94,74692.8,-0.91,-30.83,-31.29,0,*67
1506564260.5,11953,15.94,74698.8,-0.91,-31.11,-31.57,0,*65
1506564261.77,11954,15.94,74694.0,-0.89,-31.11,-31.73,0,*6D
1506564262.98,11955,15.94,74692.3,-0.91,-30.83,-31.29,0,*60
1506564264.23,11956,15.94,74698.5,-0.91,-30.73,-31.23,0,*66
1506564265.5,11957,15.94,74694.3,-0.89,-30.55,-31.23,0,*6A
1506564266.78,11958,15.94,74694.3,-0.89,-30.73,-31.11,0,*60
1506564268.01,11959,15.94,74694.5,-0.91,-30.67,-31.23,0,*6C
1506564269.22,11960,15.94,74698.5,-0.91,-30.83,-31.29,0,*66
1506564270.45,11961,15.94,74698.8,-0.91,-30.83,-31.23,0,*6D
1506564271.69,11962,15.94,74696.5,-0.89,-30.55,-31.05,0,*68
1506564272.93,11963,15.94,74696.5,-0.91,-30.39,-30.95,0,*62
1506564274.18,11964,15.94,74694.0,-0.91,-30.55,-31.11,0,*62
1506564275.41,11965,15.94,74698.5,-0.91,-30.67,-31.11,0,*62
1506564276.67,11966,15.94,74696.3,-0.89,-30.55,-30.95,0,*64
1506564277.9,11967,15.94,74700.5,-0.89,-30.67,-31.05,0,*6C
1506564279.17,11968,15.94,74694.8,-0.89,-30.73,-31.11,0,*63
1506564280.41,11969,15.94,74698.0,-0.89,-30.55,-31.05,0,*63
1506564281.66,11970,15.94,74698.0,-0.91,-30.73,-31.11,0,*63
1506564282.89,11971,15.94,74694.3,-0.91,-30.67,-30.95,0,*6A
1506564284.16,11972,15.94,74694.0,-0.89,-30.73,-31.11,0,*68
1506564285.42,11973,15.94,74692.3,-0.89,-30.67,-31.23,0,*6D
1506564286.65,11974,15.94,74694.0,-0.91,-30.83,-31.23,0,*69
1506564287.93,11975,15.94,74696.5,-0.89,-30.73,-31.11,0,*6F
1506564289.16,11976,15.94,74692.5,-0.91,-30.67,-31.11,0,*60
1506564290.39,11977,15.94,74696.5,-0.91,-30.95,-31.29,0,*67
1506564291.64,11978,15.94,74692.8,-0.91,-30.73,-31.23,0,*6A
1506564292.92,11979,15.94,74696.0,-0.89,-30.73,-31.11,0,*63
1506564294.14,11980,15.94,74696.5,-0.91,-30.55,-31.05,0,*6D
1506564295.38,11981,15.94,74696.3,-0.91,-30.55,-30.95,0,*64
1506564296.62,11982,15.94,74694.3,-0.85,-30.61,-31.01,0,*69
1506564297.88,11983,15.94,74692.0,-0.89,-30.67,-31.23,0,*62
1506564299.08,11984,15.94,74694.3,-0.91,-30.83,-31.29,0,*6C
1506564300.32,11985,15.94,74696.0,-0.91,-30.83,-31.23,0,*67
1506564301.55,11986,15.94,74692.5,-0.91,-30.95,-31.45,0,*63
1506564302.81,11987,15.94,74696.8,-0.91,-31.11,-31.61,0,*69
1506564304.07,11988,15.94,74694.8,-0.91,-30.89,-31.23,0,*60
1506564305.32,11989,15.94,74694.5,-0.91,-30.73,-31.11,0,*65
1506564306.57,11990,15.94,74696.5,-0.89,-30.67,-31.11,0,*61
1506564307.78,11991,15.94,74696.5,-0.91,-30.83,-31.29,0,*68
1506564309.0,11992,15.94,74696.0,-0.91,-30.73,-31.05,0,*6A
1506564310.23,11993,15.94,74692.0,-0.91,-30.89,-31.29,0,*60
1506564311.48,11994,15.94,74694.0,-0.91,-30.95,-31.39,0,*6B
1506564312.69,11995,15.94,74694.8,-0.91,-30.83,-31.29,0,*6C
1506564313.97,11996,15.94,74692.3,-0.89,-30.89,-31.23,0,*66
1506564315.24,11997,15.94,74696.0,-0.89,-30.73,-31.11,0,*63
1506564316.52,11998,15.94,74692.8,-0.89,-30.73,-31.11,0,*6C
1506564317.75,11999,15.94,74698.3,-0.91,-30.83,-31.23,0,*6A
1506564318.97,12000,15.94,74698.0,-0.91,-30.55,-31.05,0,*6F
1506564320.24,12001,15.94,74696.8,-0.89,-30.73,-31.11,0,*66
1506564321.45,12002,15.94,74692.0,-0.91,-30.83,-31.29,0,*68
1506564322.7,12003,15.94,74694.0,-0.93,-30.95,-31.29,0,*6C
1506564323.96,12004,15.94,74692.3,-0.93,-30.73,-31.17,0,*6E
1506564325.21,12005,15.94,74692.3,-0.91,-30.89,-31.23,0,*6F
1506564326.46,12006,15.94,74698.3,-0.93,-31.17,-31.61,0,*6E
1506564327.72,12007,15.94,74694.8,-0.93,-30.95,-31.45,0,*62
1506564329.0,12008,15.94,74694.3,-0.93,-30.77,-31.11,0,*60
1506564330.24,12009,15.94,74696.5,-0.91,-30.55,-31.11,0,*63
1506564331.5,12010,15.94,74698.8,-0.91,-30.73,-31.11,0,*6F
1506564332.75,12011,15.94,74700.5,-0.93,-30.89,-31.17,0,*6F
1506564334.01,12012,15.94,74696.3,-0.89,-30.83,-31.23,0,*6A
1506564335.26,12013,15.94,74696.5,-0.91,-30.73,-31.11,0,*6C
1506564336.49,12014,15.94,74700.3,-0.91,-30.67,-31.11,0,*6E
1506564337.75,12015,15.94,74700.0,-0.91,-30.89,-31.23,0,*6E
1506564338.99,12016,15.94,74698.5,-0.91,-30.39,-30.95,0,*6A
1506564340.27,12017,15.94,74696.0,-0.93,-30.73,-31.11,0,*6A
1506564341.52,12018,15.94,74694.3,-0.93,-30.89,-31.17,0,*66
1506564342.77,12019,15.94,74696.3,-0.93,-30.89,-31.33,0,*61
1506564344.04,12020,15.94,74696.5,-0.93,-30.73,-31.11,0,*6E
1506564345.32,12021,15.94,74692.0,-0.93,-30.61,-30.89,0,*6C
1506564346.55,12022,15.94,74692.0,-0.91,-30.67,-31.11,0,*6B
1506564347.79,12023,15.94,74692.5,-0.91,-30.67,-31.11,0,*6A
1506564349.06,12024,15.94,74696.8,-0.93,-30.73,-31.11,0,*6A
1506564350.34,12025,15.94,74696.8,-0.93,-30.77,-31.11,0,*6F
1506564351.59,12026,15.94,74694.0,-0.93,-30.61,-31.01,0,*6A
1506564352.83,12027,15.94,74696.5,-0.93,-30.61,-31.01,0,*6B
1506564354.09,12028,15.94,74698.0,-0.93,-30.73,-31.17,0,*60
1506564355.33,12029,15.94,74698.0,-0.93,-30.61,-31.01,0,*65
1506564356.56,12030,15.94,74698.3,-0.91,-30.67,-31.11,0,*68
1506564357.82,12031,15.94,74694.3,-0.93,-30.73,-31.17,0,*68
1506564359.05,12032,15.94,74692.0,-0.91,-30.83,-31.23,0,*61
1506564360.33,12033,15.94,74696.8,-0.93,-30.73,-31.11,0,*6C
1506564361.58,12034,15.94,74698.0,-0.93,-30.77,-31.17,0,*69
1506564362.86,12035,15.94,74696.8,-0.93,-30.61,-31.11,0,*69
1506564364.11,12036,15.94,74698.0,-0.93,-30.77,-31.29,0,*66
1506564365.33,12037,15.94,74694.3,-0.91,-30.55,-31.05,0,*6B
1506564366.55,12038,15.94,74698.3,-0.91,-30.55,-31.05,0,*64
1506564367.77,12039,15.94,74696.5,-0.91,-30.67,-30.95,0,*6C
1506564369.02,12040,15.94,74692.3,-0.93,-30.73,-31.01,0,*69
1506564370.3,12041,15.94,74694.5,-0.93,-30.73,-31.11,0,*69
1506564371.55,12042,15.94,74692.8,-0.93,-30.77,-31.17,0,*68
1506564372.8,12043,15.94,74694.8,-0.93,-30.95,-31.33,0,*63
1506564374.06,12044,15.94,74694.0,-0.93,-30.89,-31.45,0,*68
1506564375.33,12045,15.94,74694.3,-0.93,-30.61,-31.11,0,*6E
1506564376.61,12046,15.94,74696.8,-0.93,-30.73,-31.11,0,*6E
1506564377.86,12047,15.94,74696.3,-0.93,-30.61,-31.01,0,*6D
1506564379.13,12048,15.94,74692.3,-0.93,-30.39,-30.73,0,*6B
1506564380.41,12049,15.94,74696.3,-0.93,-30.61,-31.11,0,*62
1506564381.66,12050,15.94,74694.8,-0.93,-30.77,-31.17,0,*6B
1506564382.89,12051,15.94,74694.3,-0.91,-30.83,-31.23,0,*64
1506564384.15,12052,15.94,74692.0,-0.93,-30.77,-31.17,0,*69
1506564385.4,12053,15.94,74698.0,-0.93,-30.89,-31.29,0,*64
1506564386.63,12054,15.94,74694.8,-0.91,-30.83,-31.23,0,*61
1506564387.91,12055,15.94,74698.5,-0.93,-30.61,-31.11,0,*6F
1506564389.16,12056,15.94,74694.8,-0.93,-30.77,-31.17,0,*6D
1506564390.36,12057,15.94,74692.5,-0.91,-30.67,-31.05,0,*6C
1506564391.58,12058,15.94,74696.8,-0.93,-30.45,-31.01,0,*65
1506564392.81,12059,15.94,74696.3,-0.91,-30.67,-31.11,0,*67
1506564394.08,12060,15.94,74698.5,-0.93,-30.55,-31.11,0,*6E
1506564395.36,12061,15.94,74698.5,-0.93,-30.55,-30.89,0,*6F
1506564396.6,12062,15.94,74696.0,-0.93,-30.61,-31.01,0,*6A
1506564397.85,12063,15.94,74696.3,-0.91,-30.51,-30.95,0,*66
1506564399.08,12064,15.94,74700.8,-0.91,-30.73,-31.05,0,*69
1506564400.31,12065,15.94,74698.5,-0.91,-30.83,-31.23,0,*63
1506564401.52,12066,15.94,74694.0,-0.91,-30.83,-31.29,0,*6A
1506564402.74,12067,15.94,74698.3,-0.91,-30.55,-31.05,0,*6E
1506564403.97,12068,15.94,74692.3,-0.91,-30.67,-30.95,0,*68
1506564405.2,12069,15.94,74692.0,-0.91,-30.67,-31.11,0,*64
1506564406.44,12070,15.94,74694.5,-0.93,-30.61,-31.01,0,*69
1506564407.69,12071,15.94,74698.8,-0.93,-30.73,-31.01,0,*6B
1506564408.95,12072,15.94,74696.0,-0.95,-30.73,-31.11,0,*6F
1506564410.19,12073,15.94,74692.3,-0.93,-30.77,-31.33,0,*6C
1506564411.47,12074,15.94,74694.8,-0.93,-30.73,-31.11,0,*6F
1506564412.75,12075,15.94,74696.5,-0.93,-30.73,-31.11,0,*6E
1506564413.99,12076,15.94,74696.8,-0.91,-30.51,-30.95,0,*62
1506564415.22,12077,15.94,74700.3,-0.91,-30.67,-30.95,0,*66
1506564416.47,12078,15.94,74694.5,-0.93,-30.77,-31.17,0,*61
1506564417.73,12079,15.94,74700.0,-0.91,-30.73,-31.11,0,*60
1506564419.0,12080,15.94,74698.0,-0.93,-30.61,-31.11,0,*67
1506564420.23,12081,15.94,74694.0,-0.91,-30.67,-31.11,0,*62
1506564421.49,12082,15.94,74692.5,-0.95,-30.73,-31.11,0,*60
1506564422.72,12083,15.94,74694.5,-0.91,-30.67,-31.11,0,*60
1506564423.97,12084,15.94,74692.5,-0.93,-30.77,-31.33,0,*64
1506564425.22,12085,15.94,74696.0,-0.93,-30.77,-31.17,0,*63
1506564426.45,12086,15.94,74694.8,-0.95,-30.77,-31.29,0,*6B
1506564427.7,12087,15.94,74698.8,-0.93,-30.77,-31.17,0,*61
1506564428.93,12088,15.94,74692.0,-0.91,-30.67,-31.11,0,*6B
1506564430.19,12089,15.94,74692.3,-0.91,-30.73,-31.11,0,*6F
1506564431.44,12090,15.94,74696.3,-0.93,-30.77,-31.17,0,*67
1506564432.69,12091,15.94,74698.0,-0.93,-30.45,-30.73,0,*64
1506564433.94,12092,15.94,74692.0,-0.93,-30.45,-30.89,0,*62
1506564435.19,12093,15.94,74694.0,-0.93,-30.55,-31.01,0,*63
1506564436.43,12094,15.94,74692.8,-0.93,-30.61,-31.01,0,*63
1506564437.71,12095,15.94,74696.3,-0.93,-30.73,-31.11,0,*60
1506564438.95,12096,15.94,74694.0,-0.93,-30.55,-31.01,0,*66
1506564440.2,12097,15.94,74694.8,-0.95,-30.61,-31.11,0,*67
1506564441.46,12098,15.94,74692.3,-0.93,-30.73,-31.17,0,*6B
1506564442.69,12099,15.94,74688.3,-0.95,-30.89,-31.17,0,*69
1506564443.94,12100,15.94,74694.0,-0.93,-30.89,-31.17,0,*6E
1506564445.21,12101,15.94,74696.8,-0.93,-30.61,-31.11,0,*6F
1506564446.46,12102,15.94,74696.5,-0.93,-30.45,-30.89,0,*6A
1506564447.72,12103,15.94,74694.5,-0.93,-30.45,-30.89,0,*6B
1506564448.99,12104,15.94,74692.3,-0.93,-30.61,-31.11,0,*6A
1506564450.21,12105,15.94,74696.8,-0.91,-30.55,-31.05,0,*6B
1506564451.44,12106,15.94,74692.8,-0.91,-30.39,-30.83,0,*6D
1506564452.72,12107,15.94,74692.3,-0.93,-30.61,-30.89,0,*69
1506564453.96,12108,15.94,74698.0,-0.93,-30.61,-31.01,0,*67
1506564455.19,12109,15.94,74692.8,-0.91,-30.67,-31.11,0,*63
1506564456.44,12110,15.94,74698.5,-0.93,-30.61,-31.01,0,*6E
1506564457.72,12111,15.94,74694.0,-0.93,-30.77,-31.11,0,*69
1506564458.94,12112,15.94,74694.5,-0.91,-30.55,-31.05,0,*6D
1506564460.17,12113,15.94,74696.0,-0.91,-30.51,-30.83,0,*67
1506564461.39,12114,15.94,74692.3,-0.95,-30.55,-31.01,0,*6B
1506564462.66,12115,15.94,74702.3,-0.93,-30.61,-31.11,0,*6A
1506564463.91,12116,15.94,74698.3,-0.93,-30.45,-31.11,0,*6F
1506564465.16,12117,15.94,74700.3,-0.93,-30.61,-31.01,0,*69
1506564466.41,12118,15.94,74698.8,-0.93,-30.45,-30.89,0,*61
1506564467.63,12119,15.94,74694.0,-0.91,-30.73,-31.05,0,*62
1506564468.91,12120,15.94,74698.8,-0.93,-30.73,-31.11,0,*6F
1506564470.19,12121,15.94,74694.3,-0.93,-30.73,-31.11,0,*6E
1506564471.46,12122,15.94,74692.5,-0.93,-30.61,-31.11,0,*6E
1506564472.71,12123,15.94,74692.3,-0.93,-30.77,-31.29,0,*63
1506564473.97,12124,15.94,74698.8,-0.93,-30.77,-31.17,0,*69
1506564475.22,12125,15.94,74696.8,-0.93,-30.89,-31.29,0,*64
1506564476.49,12126,15.94,74698.5,-0.93,-30.55,-31.11,0,*6D
1506564477.77,12127,15.94,74696.8,-0.93,-30.73,-31.11,0,*68
1506564479.02,12128,15.94,74698.5,-0.93,-30.73,-31.17,0,*61
1506564480.27,12129,15.94,74696.3,-0.93,-30.77,-31.17,0,*64
1506564481.53,12130,15.94,74694.5,-0.93,-30.45,-30.77,0,*6A
1506564482.77,12131,15.94,74692.8,-0.93,-30.61,-31.01,0,*6D
1506564484.02,12132,15.94,74698.0,-0.93,-30.61,-31.01,0,*6E
1506564485.27,12133,15.94,74692.0,-0.93,-30.61,-31.01,0,*6F
1506564486.51,12134,15.94,74694.8,-0.93,-30.61,-31.01,0,*68
1506564487.79,12135,15.94,74692.0,-0.93,-30.61,-31.11,0,*68
1506564489.06,12136,15.94,74696.8,-0.93,-30.77,-31.11,0,*6C
1506564490.34,12137,15.94,74698.0,-0.93,-30.61,-31.11,0,*6A
1506564491.57,12138,15.94,74702.0,-0.91,-30.83,-31.23,0,*6A
1506564492.83,12139,15.94,74694.8,-0.93,-30.77,-31.17,0,*65
1506564494.1,12140,15.94,74694.8,-0.93,-30.61,-31.11,0,*6A
1506564495.32,12141,15.94,74694.0,-0.93,-30.45,-31.01,0,*6C
1506564496.57,12142,15.94,74698.8,-0.93,-30.73,-31.17,0,*6D
1506564497.79,12143,15.94,74698.3,-0.95,-30.55,-31.01,0,*69
1506564499.04,12144,15.94,74698.3,-0.93,-30.73,-31.01,0,*6C
1506564500.32,12145,15.94,74698.8,-0.93,-30.77,-31.11,0,*68